Location: Newark
(51.8850°N, 0.2350°E)
Time: 22:54:24
(UTC+00:00)

ISS - Visible Passes

Search period start: 23 October 2019 00:00
Search period end: 02 November 2019 00:00
Orbit: 411 x 421 km, 51.6° (Epoch: 24 October)

Date Brightness Start Highest point End Pass type
(mag) Time Alt. Az. Time Alt. Az. Time Alt. Az.
25 Oct -0.9 05:36:23 10° S 05:38:37 17° SE 05:40:51 10° E visible
26 Oct -0.7 04:49:09 10° SSE 04:50:15 11° SE 04:51:21 10° ESE visible
27 Oct -2.0 05:34:47 10° SW 05:37:49 31° SSE 05:40:50 10° E visible
28 Oct -1.6 04:47:35 15° S 04:49:20 22° SE 04:52:02 10° E visible
29 Oct -1.1 04:01:17 15° SE 04:01:17 15° SE 04:03:00 10° ESE visible
29 Oct -3.1 05:34:12 13° SW 05:37:06 53° SSE 05:40:24 10° E visible
30 Oct -2.8 04:47:47 34° S 04:48:31 40° SSE 04:51:43 10° E visible
31 Oct -1.4 04:01:16 22° ESE 04:01:16 22° ESE 04:02:58 10° E visible
31 Oct -3.7 05:34:10 19° WSW 05:36:27 77° S 05:39:50 10° E visible
01 Nov -3.7 04:47:35 62° S 04:47:48 65° SSE 04:51:09 10° E visible
